| time (UTC) | temp F | wind direction | speed knots | gust knots | rain 1hr in | rain 24hr in | rain mn in | humidity % | barometer mb |
| 20260508014636 | 37 | 207 | 0.0 | 0.0 | 0.00 | 0.00 | 0.00 | 94 | 1011.6 |
| 20260508014132 | 37 | 207 | 0.0 | 0.0 | 0.00 | 0.00 | 0.00 | 92 | 1011.6 |
| 20260508013628 | 37 | 206 | 0.0 | 0.0 | 0.00 | 0.00 | 0.00 | 92 | 1011.8 |
| 20260508013125 | 37 | 206 | 0.0 | 0.0 | 0.00 | 0.00 | 0.00 | 92 | 1011.6 |
| 20260508012623 | 37 | 206 | 0.0 | 0.0 | 0.00 | 0.00 | 0.00 | 91 | 1011.5 |
| 20260508012120 | 37 | 206 | 0.0 | 1.7 | 0.00 | 0.00 | 0.00 | 91 | 1011.4 |
| 20260508011618 | 38 | 207 | 0.9 | 0.9 | 0.00 | 0.00 | 0.00 | 91 | 1011.4 |
| 20260508011115 | 38 | 205 | 0.9 | 1.7 | 0.00 | 0.00 | 0.00 | 91 | 1011.5 |
| 20260508010612 | 38 | 172 | 1.7 | 2.6 | 0.00 | 0.00 | 0.00 | 91 | 1011.4 |
| 20260508010110 | 38 | 180 | 2.6 | 2.6 | 0.00 | 0.00 | 0.00 | 90 | 1011.5 |
| 20260508005606 | 38 | 187 | 2.6 | 3.5 | 0.00 | 0.00 | 0.00 | 90 | 1011.6 |
| 20260508005102 | 38 | 221 | 1.7 | 2.6 | 0.00 | 0.00 | 0.00 | 90 | 1011.8 |
| 20260508004559 | 38 | 224 | 1.7 | 1.7 | 0.00 | 0.00 | 0.00 | 90 | 1011.8 |
| 20260508004055 | 38 | 260 | 0.9 | 1.7 | 0.00 | 0.00 | 0.00 | 90 | 1011.7 |
| 20260508003552 | 38 | 247 | 3.5 | 3.5 | 0.00 | 0.00 | 0.00 | 90 | 1011.7 |
| 20260508003050 | 38 | 280 | 1.7 | 2.6 | 0.00 | 0.00 | 0.00 | 91 | 1011.7 |
| 20260508002546 | 38 | 299 | 1.7 | 2.6 | 0.00 | 0.00 | 0.00 | 91 | 1011.6 |
| 20260508002043 | 38 | 303 | 2.6 | 2.6 | 0.00 | 0.00 | 0.00 | 91 | 1011.8 |
| 20260508001538 | 38 | 312 | 2.6 | 3.5 | 0.00 | 0.00 | 0.00 | 90 | 1011.9 |
| 20260508001035 | 38 | 291 | 1.7 | 2.6 | 0.00 | 0.00 | 0.00 | 90 | 1011.8 |
| 20260508000531 | 38 | 293 | 2.6 | 3.5 | 0.00 | 0.00 | 0.00 | 90 | 1011.7 |
| 20260508000029 | 39 | 314 | 5.2 | 6.1 | 0.00 | 0.00 | 0.00 | 90 | 1011.5 |
| 20260507235525 | 39 | 315 | 3.5 | 6.1 | 0.00 | 0.00 | 0.00 | 90 | 1011.7 |
| 20260507235023 | 39 | 297 | 6.1 | 7.0 | 0.00 | 0.00 | 0.00 | 89 | 1011.4 |
| 20260507234519 | 39 | 306 | 2.6 | 5.2 | 0.00 | 0.00 | 0.00 | 90 | 1011.6 |
| 20260507234015 | 39 | 300 | 2.6 | 6.1 | 0.00 | 0.00 | 0.00 | 90 | 1011.6 |
| 20260507233512 | 39 | 306 | 2.6 | 3.5 | 0.00 | 0.00 | 0.00 | 90 | 1011.7 |
| 20260507233011 | 40 | 299 | 0.9 | 5.2 | 0.00 | 0.00 | 0.00 | 89 | 1011.4 |
| 20260507232507 | 40 | 308 | 1.7 | 7.0 | 0.00 | 0.00 | 0.00 | 88 | 1011.5 |
| 20260507232004 | 40 | 320 | 2.6 | 7.0 | 0.00 | 0.00 | 0.00 | 88 | 1011.6 |
| 20260507231500 | 40 | 320 | 1.7 | 3.5 | 0.00 | 0.00 | 0.00 | 87 | 1011.6 |
| 20260507230958 | 41 | 340 | 3.5 | 6.1 | 0.00 | 0.00 | 0.00 | 86 | 1011.4 |
| 20260507230454 | 41 | 308 | 2.6 | 2.6 | 0.00 | 0.00 | 0.00 | 85 | 1011.6 |
| 20260507225949 | 41 | 336 | 2.6 | 3.5 | 0.00 | 0.00 | 0.00 | 84 | 1011.6 |
| 20260507225447 | 41 | 325 | 3.5 | 3.5 | 0.00 | 0.00 | 0.00 | 83 | 1011.5 |
| 20260507224943 | 41 | 338 | 2.6 | 3.5 | 0.00 | 0.00 | 0.00 | 82 | 1011.5 |
| 20260507224439 | 41 | 308 | 1.7 | 3.5 | 0.00 | 0.00 | 0.00 | 83 | 1011.5 |
| 20260507223936 | 41 | 300 | 3.5 | 5.2 | 0.00 | 0.00 | 0.00 | 84 | 1011.8 |
| 20260507223431 | 40 | 294 | 2.6 | 2.6 | 0.00 | 0.00 | 0.00 | 86 | 1011.7 |
| 20260507222928 | 41 | 325 | 3.5 | 3.5 | 0.00 | 0.00 | 0.00 | 85 | 1011.7 |
| 20260507222425 | 40 | 304 | 1.7 | 2.6 | 0.00 | 0.00 | 0.00 | 86 | 1011.6 |
| 20260507221922 | 40 | 303 | 4.3 | 5.2 | 0.00 | 0.00 | 0.00 | 86 | 1011.7 |
| 20260507221418 | 40 | 323 | 3.5 | 3.5 | 0.00 | 0.00 | 0.00 | 86 | 1011.8 |
| 20260507220914 | 40 | 311 | 3.5 | 5.2 | 0.00 | 0.00 | 0.00 | 86 | 1011.7 |
| 20260507220412 | 40 | 297 | 3.5 | 3.5 | 0.00 | 0.00 | 0.00 | 87 | 1011.7 |
| 20260507215908 | 40 | 297 | 3.5 | 5.2 | 0.00 | 0.00 | 0.00 | 86 | 1011.6 |
| 20260507215405 | 40 | 279 | 6.1 | 7.0 | 0.00 | 0.00 | 0.00 | 85 | 1011.8 |
| 20260507214902 | 40 | 294 | 4.3 | 6.1 | 0.00 | 0.00 | 0.00 | 87 | 1011.7 |
| 20260507214400 | 40 | 312 | 3.5 | 6.1 | 0.00 | 0.00 | 0.00 | 87 | 1011.7 |
| 20260507213855 | 41 | 302 | 3.5 | 7.8 | 0.00 | 0.00 | 0.00 | 85 | 1011.6 |
| 20260507213352 | 41 | 290 | 5.2 | 8.7 | 0.00 | 0.00 | 0.00 | 85 | 1011.8 |
| 20260507212849 | 41 | 275 | 6.1 | 9.6 | 0.00 | 0.00 | 0.00 | 85 | 1011.7 |
| 20260507212345 | 41 | 316 | 4.3 | 7.8 | 0.00 | 0.00 | 0.00 | 85 | 1011.7 |
| 20260507211842 | 41 | 299 | 3.5 | 7.8 | 0.00 | 0.00 | 0.00 | 84 | 1011.7 |
| 20260507211339 | 41 | 303 | 4.3 | 7.8 | 0.00 | 0.00 | 0.00 | 84 | 1011.7 |
| 20260507210835 | 40 | 312 | 3.5 | 7.0 | 0.00 | 0.00 | 0.00 | 84 | 1011.4 |
| 20260507210332 | 40 | 338 | 2.6 | 8.7 | 0.00 | 0.00 | 0.00 | 85 | 1011.6 |
| 20260507205829 | 40 | 305 | 7.0 | 9.6 | 0.00 | 0.00 | 0.00 | 84 | 1011.5 |
| 20260507205326 | 40 | 303 | 7.8 | 12.2 | 0.00 | 0.00 | 0.00 | 84 | 1011.6 |
| 20260507204822 | 39 | 334 | 6.1 | 13.9 | 0.00 | 0.00 | 0.00 | 84 | 1011.4 |
| 20260507204319 | 39 | 334 | 6.1 | 13.9 | 0.00 | 0.00 | 0.00 | 84 | 1011.4 |
| 20260507203817 | 44 | 332 | 6.1 | 13.0 | 0.00 | 0.00 | 0.00 | 78 | 1011.5 |
| 20260507203315 | 44 | 271 | 6.1 | 8.7 | 0.00 | 0.00 | 0.00 | 65 | 1011.1 |
| 20260507202811 | 44 | 235 | 10.4 | 13.9 | 0.00 | 0.00 | 0.00 | 63 | 1011.0 |
| 20260507202307 | 44 | 271 | 9.6 | 11.3 | 0.00 | 0.00 | 0.00 | 61 | 1011.0 |
| 20260507201802 | 44 | 235 | 9.6 | 12.2 | 0.00 | 0.00 | 0.00 | 63 | 1011.1 |
| 20260507201258 | 45 | 242 | 8.7 | 11.3 | 0.00 | 0.00 | 0.00 | 62 | 1011.0 |
| 20260507200755 | 45 | 236 | 5.2 | 9.6 | 0.00 | 0.00 | 0.00 | 63 | 1011.1 |
| 20260507200251 | 45 | 222 | 9.6 | 12.2 | 0.00 | 0.00 | 0.00 | 61 | 1011.0 |
| 20260507195747 | 45 | 239 | 7.0 | 7.8 | 0.00 | 0.00 | 0.00 | 61 | 1011.1 |
| 20260507195245 | 45 | 215 | 9.6 | 12.2 | 0.00 | 0.00 | 0.00 | 60 | 1010.8 |
| 20260507194742 | 45 | 228 | 8.7 | 9.6 | 0.00 | 0.00 | 0.00 | 61 | 1011.0 |
| 20260507194238 | 44 | 218 | 5.2 | 7.8 | 0.00 | 0.00 | 0.00 | 63 | 1011.3 |
| 20260507193735 | 44 | 246 | 9.6 | 12.2 | 0.00 | 0.00 | 0.00 | 65 | 1011.4 |
| 20260507193232 | 43 | 248 | 8.7 | 12.2 | 0.00 | 0.00 | 0.00 | 64 | 1011.5 |
| 20260507192728 | 43 | 253 | 9.6 | 12.2 | 0.00 | 0.00 | 0.00 | 67 | 1011.4 |
| 20260507192225 | 43 | 251 | 7.8 | 12.2 | 0.00 | 0.00 | 0.00 | 64 | 1011.4 |
| 20260507191721 | 44 | 236 | 9.6 | 12.2 | 0.00 | 0.00 | 0.00 | 62 | 1011.3 |
| 20260507191218 | 44 | 235 | 8.7 | 9.6 | 0.00 | 0.00 | 0.00 | 63 | 1011.4 |
| 20260507190715 | 44 | 225 | 6.1 | 9.6 | 0.00 | 0.00 | 0.00 | 64 | 1011.3 |
| 20260507190213 | 44 | 235 | 4.3 | 8.7 | 0.00 | 0.00 | 0.00 | 63 | 1011.3 |
| 20260507185711 | 45 | 206 | 4.3 | 8.7 | 0.00 | 0.00 | 0.00 | 66 | 1011.4 |
| 20260507185208 | 44 | 224 | 3.5 | 5.2 | 0.00 | 0.00 | 0.00 | 66 | 1011.4 |
| 20260507184706 | 44 | 216 | 3.5 | 5.2 | 0.00 | 0.00 | 0.00 | 74 | 1011.5 |
| 20260507184204 | 43 | 254 | 3.5 | 6.1 | 0.00 | 0.00 | 0.00 | 73 | 1011.5 |
| 20260507183659 | 43 | 269 | 1.7 | 7.0 | 0.00 | 0.00 | 0.00 | 73 | 1011.5 |
| 20260507183156 | 43 | 224 | 5.2 | 7.8 | 0.00 | 0.00 | 0.00 | 73 | 1011.6 |
| 20260507182654 | 43 | 242 | 4.3 | 7.8 | 0.00 | 0.00 | 0.00 | 75 | 1011.6 |
| 20260507182149 | 42 | 269 | 4.3 | 7.0 | 0.00 | 0.00 | 0.00 | 79 | 1011.7 |
| 20260507181645 | 42 | 282 | 4.3 | 6.1 | 0.00 | 0.00 | 0.00 | 81 | 1011.9 |
| 20260507181142 | 41 | 256 | 5.2 | 7.8 | 0.00 | 0.00 | 0.00 | 83 | 1011.9 |
| 20260507180638 | 40 | 265 | 4.3 | 7.0 | 0.00 | 0.00 | 0.00 | 88 | 1012.0 |
| 20260507180136 | 39 | 307 | 5.2 | 7.8 | 0.00 | 0.00 | 0.00 | 90 | 1012.2 |
| 20260507175631 | 38 | 254 | 4.3 | 8.7 | 0.00 | 0.00 | 0.00 | 92 | 1012.4 |
| 20260507175129 | 38 | 272 | 4.3 | 11.3 | 0.00 | 0.00 | 0.00 | 91 | 1012.4 |
| 20260507174626 | 39 | 283 | 11.3 | 14.8 | 0.00 | 0.00 | 0.00 | 88 | 1012.3 |
| 20260507174124 | 41 | 315 | 10.4 | 15.6 | 0.00 | 0.00 | 0.00 | 83 | 1012.1 |
| 20260507173621 | 43 | 263 | 11.3 | 13.0 | 0.00 | 0.00 | 0.00 | 63 | 1011.9 |
| 20260507173118 | 44 | 240 | 7.0 | 14.8 | 0.00 | 0.00 | 0.00 | 62 | 1011.9 |
| 20260507172614 | 45 | 219 | 8.7 | 12.2 | 0.00 | 0.00 | 0.00 | 61 | 1012.0 |
| 20260507172111 | 44 | 210 | 8.7 | 9.6 | 0.00 | 0.00 | 0.00 | 61 | 1011.7 |
| 20260507171606 | 44 | 209 | 7.8 | 12.2 | 0.00 | 0.00 | 0.00 | 63 | 1011.9 |
| 20260507171103 | 44 | 216 | 4.3 | 11.3 | 0.00 | 0.00 | 0.00 | 64 | 1011.9 |
| 20260507170600 | 44 | 227 | 9.6 | 11.3 | 0.00 | 0.00 | 0.00 | 63 | 1012.0 |
| 20260507170057 | 44 | 221 | 5.2 | 7.8 | 0.00 | 0.00 | 0.00 | 62 | 1012.1 |
| 20260507165553 | 43 | 236 | 7.0 | 12.2 | 0.00 | 0.00 | 0.00 | 64 | 1012.0 |
| 20260507165049 | 43 | 220 | 8.7 | 12.2 | 0.00 | 0.00 | 0.00 | 64 | 1012.2 |
| 20260507164546 | 43 | 226 | 7.0 | 8.7 | 0.00 | 0.00 | 0.00 | 68 | 1012.4 |
| 20260507164043 | 42 | 198 | 3.5 | 7.8 | 0.00 | 0.00 | 0.00 | 71 | 1012.4 |
| 20260507163540 | 42 | 211 | 6.1 | 11.3 | 0.00 | 0.00 | 0.00 | 69 | 1012.3 |
| 20260507163038 | 43 | 190 | 6.1 | 8.7 | 0.00 | 0.00 | 0.00 | 68 | 1012.4 |
| 20260507162538 | 43 | 192 | 3.5 | 7.8 | 0.00 | 0.00 | 0.00 | 67 | 1012.3 |
| 20260507162036 | 43 | 246 | 5.2 | 6.1 | 0.00 | 0.00 | 0.00 | 64 | 1012.6 |
| 20260507161532 | 43 | 252 | 7.0 | 9.6 | 0.00 | 0.00 | 0.00 | 63 | 1012.6 |
| 20260507161029 | 43 | 234 | 1.7 | 8.7 | 0.00 | 0.00 | 0.00 | 64 | 1012.7 |
| 20260507160525 | 43 | 232 | 9.6 | 11.3 | 0.00 | 0.00 | 0.00 | 66 | 1012.7 |
| 20260507160021 | 43 | 249 | 7.0 | 8.7 | 0.00 | 0.00 | 0.00 | 64 | 1012.9 |
| 20260507155516 | 43 | 261 | 5.2 | 7.0 | 0.00 | 0.00 | 0.00 | 64 | 1012.7 |
| 20260507155014 | 43 | 243 | 7.8 | 8.7 | 0.00 | 0.00 | 0.00 | 64 | 1012.7 |
| 20260507154511 | 42 | 248 | 4.3 | 9.6 | 0.00 | 0.00 | 0.00 | 68 | 1012.9 |
| 20260507154009 | 42 | 267 | 7.8 | 9.6 | 0.00 | 0.00 | 0.00 | 67 | 1013.0 |
| 20260507153504 | 42 | 277 | 7.8 | 8.7 | 0.00 | 0.00 | 0.00 | 67 | 1012.9 |
| 20260507153000 | 42 | 277 | 7.0 | 7.8 | 0.00 | 0.00 | 0.00 | 67 | 1012.9 |
| 20260507152456 | 42 | 262 | 6.1 | 6.1 | 0.00 | 0.00 | 0.00 | 67 | 1012.9 |
| 20260507151953 | 42 | 224 | 6.1 | 7.8 | 0.00 | 0.00 | 0.00 | 67 | 1013.0 |
| 20260507151449 | 42 | 248 | 6.1 | 7.8 | 0.00 | 0.00 | 0.00 | 68 | 1012.8 |
| 20260507150946 | 42 | 267 | 9.6 | 9.6 | 0.00 | 0.00 | 0.00 | 68 | 1012.9 |
| 20260507150443 | 42 | 248 | 7.0 | 7.8 | 0.00 | 0.00 | 0.00 | 66 | 1012.9 |
| 20260507145939 | 41 | 228 | 7.0 | 8.7 | 0.00 | 0.00 | 0.00 | 67 | 1012.9 |
| 20260507145435 | 41 | 239 | 5.2 | 7.8 | 0.00 | 0.00 | 0.00 | 70 | 1012.9 |
| 20260507144932 | 41 | 25 | 6.1 | 7.8 | 0.00 | 0.00 | 0.00 | 68 | 1012.8 |
| 20260507144429 | 41 | 248 | 7.0 | 8.7 | 0.00 | 0.00 | 0.00 | 70 | 1012.8 |
| 20260507143926 | 41 | 240 | 4.3 | 9.6 | 0.00 | 0.00 | 0.00 | 68 | 1013.1 |
| 20260507143424 | 41 | 260 | 5.2 | 6.1 | 0.00 | 0.00 | 0.00 | 69 | 1013.0 |
| 20260507142920 | 41 | 266 | 7.0 | 11.3 | 0.00 | 0.00 | 0.00 | 70 | 1013.2 |
| 20260507142416 | 41 | 254 | 4.3 | 7.8 | 0.00 | 0.00 | 0.00 | 72 | 1012.9 |
| 20260507141914 | 41 | 218 | 7.8 | 9.6 | 0.00 | 0.00 | 0.00 | 71 | 1013.0 |
| 20260507141409 | 41 | 230 | 4.3 | 9.6 | 0.00 | 0.00 | 0.00 | 73 | 1013.1 |
| 20260507140906 | 41 | 268 | 4.3 | 7.0 | 0.00 | 0.00 | 0.00 | 73 | 1013.2 |
| 20260507140403 | 41 | 227 | 7.8 | 12.2 | 0.00 | 0.00 | 0.00 | 71 | 1013.1 |
| 20260507135901 | 40 | 211 | 4.3 | 7.0 | 0.00 | 0.00 | 0.00 | 74 | 1013.1 |
| 20260507135357 | 40 | 261 | 6.1 | 7.8 | 0.00 | 0.00 | 0.00 | 73 | 1013.0 |
| 20260507134855 | 40 | 249 | 8.7 | 8.7 | 0.00 | 0.00 | 0.00 | 73 | 1013.0 |
| 20260507134351 | 40 | 239 | 4.3 | 7.0 | 0.00 | 0.00 | 0.00 | 75 | 1012.9 |
| 20260507133847 | 40 | 221 | 5.2 | 7.8 | 0.00 | 0.00 | 0.00 | 75 | 1013.0 |
| 20260507133342 | 40 | 232 | 5.2 | 8.7 | 0.00 | 0.00 | 0.00 | 75 | 1013.1 |
| 20260507132842 | 40 | 241 | 4.3 | 6.1 | 0.00 | 0.00 | 0.00 | 76 | 1012.9 |
| 20260507132337 | 39 | 238 | 4.3 | 7.8 | 0.00 | 0.00 | 0.00 | 77 | 1012.9 |
| 20260507131835 | 39 | 223 | 2.6 | 7.0 | 0.00 | 0.00 | 0.00 | 79 | 1012.9 |
| 20260507131331 | 39 | 212 | 2.6 | 7.8 | 0.00 | 0.00 | 0.00 | 79 | 1012.9 |
| 20260507130828 | 39 | 190 | 5.2 | 7.0 | 0.00 | 0.00 | 0.00 | 79 | 1013.0 |
| 20260507130325 | 39 | 216 | 3.5 | 7.0 | 0.00 | 0.00 | 0.00 | 80 | 1012.8 |
| 20260507125824 | 38 | 202 | 3.5 | 5.2 | 0.00 | 0.00 | 0.00 | 79 | 1012.8 |
| 20260507125321 | 38 | 239 | 3.5 | 6.1 | 0.00 | 0.00 | 0.00 | 82 | 1012.7 |
| 20260507124818 | 38 | 226 | 4.3 | 7.0 | 0.00 | 0.00 | 0.00 | 81 | 1012.8 |
| 20260507124314 | 37 | 236 | 3.5 | 7.0 | 0.00 | 0.00 | 0.00 | 81 | 1012.8 |
| 20260507123813 | 37 | 216 | 5.2 | 7.0 | 0.00 | 0.00 | 0.00 | 82 | 1013.0 |
| 20260507123310 | 37 | 227 | 4.3 | 7.0 | 0.00 | 0.00 | 0.00 | 83 | 1013.0 |
| 20260507122806 | 37 | 207 | 3.5 | 5.2 | 0.00 | 0.00 | 0.00 | 83 | 1012.9 |
| 20260507122306 | 37 | 209 | 3.5 | 6.1 | 0.00 | 0.00 | 0.00 | 84 | 1012.9 |
| 20260507121758 | 36 | 203 | 6.1 | 8.7 | 0.00 | 0.00 | 0.00 | 82 | 1012.7 |
| 20260507121254 | 36 | 218 | 4.3 | 7.0 | 0.00 | 0.00 | 0.00 | 83 | 1012.8 |
| 20260507120750 | 36 | 113 | 7.0 | 8.7 | 0.00 | 0.00 | 0.00 | 82 | 1012.7 |
| 20260507120247 | 36 | 113 | 5.2 | 7.8 | 0.00 | 0.00 | 0.00 | 82 | 1012.7 |
| 20260507115743 | 35 | 295 | 3.5 | 5.2 | 0.00 | 0.00 | 0.00 | 83 | 1012.7 |
| 20260507115239 | 34 | 264 | 2.6 | 3.5 | 0.00 | 0.00 | 0.00 | 86 | 1012.7 |
| 20260507114735 | 32 | 217 | 1.7 | 2.6 | 0.00 | 0.00 | 0.00 | 88 | 1012.5 |
| 20260507114232 | 31 | 234 | 0.0 | 0.0 | 0.00 | 0.00 | 0.00 | 91 | 1012.6 |
| 20260507113730 | 30 | 263 | 0.0 | 0.0 | 0.00 | 0.00 | 0.00 | 93 | 1012.7 |
| 20260507113226 | 30 | 252 | 0.0 | 0.0 | 0.00 | 0.00 | 0.00 | 94 | 1012.5 |
| 20260507112724 | 29 | 270 | 0.0 | 0.0 | 0.00 | 0.00 | 0.00 | 93 | 1012.5 |
| 20260507112221 | 29 | 236 | 0.0 | 0.0 | 0.00 | 0.00 | 0.00 | 94 | 1012.5 |
| 20260507111718 | 29 | 236 | 0.0 | 0.0 | 0.00 | 0.00 | 0.00 | 95 | 1012.5 |
| 20260507111215 | 29 | 98 | 0.0 | 0.0 | 0.00 | 0.00 | 0.00 | 97 | 1012.5 |
| 20260507110711 | 29 | 226 | 0.0 | 0.0 | 0.00 | 0.00 | 0.00 | 98 | 1012.4 |
| 20260507110208 | 29 | 226 | 0.0 | 0.0 | 0.00 | 0.00 | 0.00 | 98 | 1012.7 |
| 20260507105705 | 29 | 226 | 0.0 | 0.0 | 0.00 | 0.00 | 0.00 | 98 | 1012.5 |
| 20260507105200 | 29 | 226 | 0.0 | 0.0 | 0.00 | 0.00 | 0.00 | 98 | 1012.4 |
| 20260507104658 | 29 | 226 | 0.0 | 0.0 | 0.00 | 0.00 | 0.00 | 98 | 1012.6 |
| 20260507104154 | 29 | 226 | 0.0 | 0.0 | 0.00 | 0.00 | 0.00 | 98 | 1012.5 |
| 20260507103650 | 29 | 225 | 0.0 | 0.0 | 0.00 | 0.00 | 0.00 | 97 | 1012.6 |
| 20260507103147 | 29 | 225 | 0.0 | 0.0 | 0.00 | 0.00 | 0.00 | 97 | 1012.6 |
| 20260507102644 | 29 | 226 | 0.0 | 0.0 | 0.00 | 0.00 | 0.00 | 97 | 1012.3 |
| 20260507102140 | 29 | 69 | 0.0 | 0.0 | 0.00 | 0.00 | 0.00 | 97 | 1012.4 |
| 20260507101636 | 29 | 305 | 0.0 | 0.0 | 0.00 | 0.00 | 0.00 | 96 | 1012.5 |
| 20260507101132 | 29 | 305 | 0.0 | 0.0 | 0.00 | 0.00 | 0.00 | 96 | 1012.7 |
| 20260507100629 | 29 | 305 | 0.0 | 0.0 | 0.00 | 0.00 | 0.00 | 97 | 1012.3 |
| 20260507100128 | 30 | 305 | 0.0 | 0.0 | 0.00 | 0.00 | 0.00 | 97 | 1012.4 |
| 20260507095625 | 30 | 305 | 0.0 | 0.0 | 0.00 | 0.00 | 0.00 | 97 | 1012.5 |
| 20260507095121 | 30 | 305 | 0.0 | 0.0 | 0.00 | 0.00 | 0.00 | 96 | 1012.4 |
| 20260507094618 | 30 | 235 | 0.0 | 0.0 | 0.00 | 0.00 | 0.00 | 95 | 1012.6 |
| 20260507094115 | 30 | 235 | 0.0 | 0.0 | 0.00 | 0.00 | 0.00 | 95 | 1012.5 |
| 20260507093612 | 30 | 235 | 0.0 | 0.0 | 0.00 | 0.00 | 0.00 | 96 | 1012.6 |
| 20260507093111 | 30 | 234 | 0.0 | 0.0 | 0.00 | 0.00 | 0.00 | 95 | 1012.7 |
| 20260507092607 | 30 | 234 | 0.0 | 0.0 | 0.00 | 0.00 | 0.00 | 91 | 1012.9 |
| 20260507092103 | 31 | 234 | 0.0 | 0.0 | 0.00 | 0.00 | 0.00 | 92 | 1012.8 |
| 20260507091600 | 31 | 234 | 0.0 | 0.0 | 0.00 | 0.00 | 0.00 | 89 | 1012.8 |
| 20260507091056 | 31 | 234 | 0.0 | 0.0 | 0.00 | 0.00 | 0.00 | 89 | 1012.8 |
| 20260507090552 | 31 | 234 | 0.0 | 0.0 | 0.00 | 0.00 | 0.00 | 89 | 1012.9 |
| 20260507090049 | 31 | 234 | 0.0 | 0.0 | 0.00 | 0.00 | 0.00 | 90 | 1012.8 |
| 20260507085546 | 31 | 234 | 0.0 | 0.0 | 0.00 | 0.00 | 0.00 | 90 | 1012.8 |
| 20260507085043 | 31 | 234 | 0.0 | 0.0 | 0.00 | 0.00 | 0.00 | 90 | 1012.8 |
| 20260507084539 | 31 | 234 | 0.0 | 0.0 | 0.00 | 0.00 | 0.00 | 90 | 1012.9 |
| 20260507084037 | 31 | 234 | 0.0 | 0.0 | 0.00 | 0.00 | 0.00 | 91 | 1013.0 |
| 20260507083533 | 31 | 234 | 0.0 | 0.0 | 0.00 | 0.00 | 0.00 | 90 | 1012.9 |
| 20260507083030 | 32 | 234 | 0.0 | 0.0 | 0.00 | 0.00 | 0.00 | 90 | 1012.9 |
| 20260507082526 | 31 | 234 | 0.0 | 0.0 | 0.00 | 0.00 | 0.00 | 90 | 1013.0 |
| 20260507082022 | 31 | 234 | 0.0 | 0.0 | 0.00 | 0.00 | 0.00 | 90 | 1013.1 |
| 20260507081519 | 31 | 234 | 0.0 | 0.0 | 0.00 | 0.00 | 0.00 | 90 | 1013.1 |
| 20260507081016 | 31 | 234 | 0.0 | 0.0 | 0.00 | 0.00 | 0.00 | 90 | 1013.2 |
| 20260507080511 | 31 | 235 | 0.0 | 0.0 | 0.00 | 0.00 | 0.00 | 91 | 1013.0 |
| 20260507080008 | 31 | 234 | 0.0 | 0.0 | 0.00 | 0.00 | 0.00 | 91 | 1013.0 |
| 20260507075503 | 31 | 234 | 0.0 | 0.0 | 0.00 | 0.00 | 0.00 | 91 | 1013.2 |
| 20260507075000 | 31 | 235 | 0.0 | 0.0 | 0.00 | 0.00 | 0.00 | 91 | 1013.1 |
| 20260507074457 | 31 | 234 | 0.0 | 0.0 | 0.00 | 0.00 | 0.00 | 91 | 1013.3 |
| 20260507073955 | 31 | 240 | 0.0 | 0.0 | 0.00 | 0.00 | 0.00 | 91 | 1013.2 |
| 20260507073451 | 31 | 230 | 0.0 | 0.0 | 0.00 | 0.00 | 0.00 | 91 | 1013.3 |
| 20260507072948 | 31 | 232 | 0.0 | 0.0 | 0.00 | 0.00 | 0.00 | 92 | 1013.5 |
| 20260507072445 | 31 | 229 | 0.0 | 0.0 | 0.00 | 0.00 | 0.00 | 92 | 1013.3 |
| 20260507071943 | 31 | 237 | 0.0 | 0.0 | 0.00 | 0.00 | 0.00 | 93 | 1013.4 |
| 20260507071440 | 30 | 233 | 0.0 | 0.0 | 0.00 | 0.00 | 0.00 | 94 | 1013.5 |
| 20260507070936 | 30 | 272 | 0.0 | 0.0 | 0.00 | 0.00 | 0.00 | 95 | 1013.4 |
| 20260507070434 | 29 | 273 | 0.0 | 0.0 | 0.00 | 0.00 | 0.00 | 96 | 1013.3 |
| 20260507065930 | 29 | 273 | 0.0 | 0.0 | 0.00 | 0.00 | 0.00 | 96 | 1013.4 |
| 20260507065427 | 29 | 273 | 0.0 | 0.0 | 0.00 | 0.00 | 0.00 | 95 | 1013.4 |
| 20260507064925 | 29 | 273 | 0.0 | 0.0 | 0.00 | 0.00 | 0.00 | 96 | 1013.7 |
| 20260507064423 | 29 | 273 | 0.0 | 0.0 | 0.00 | 0.00 | 0.00 | 96 | 1013.5 |
| 20260507063920 | 29 | 273 | 0.0 | 0.0 | 0.00 | 0.00 | 0.00 | 98 | 1013.6 |
| 20260507063417 | 29 | 273 | 0.0 | 0.0 | 0.00 | 0.00 | 0.00 | 98 | 1013.7 |
| 20260507062914 | 29 | 273 | 0.0 | 0.0 | 0.00 | 0.00 | 0.00 | 98 | 1013.7 |
| 20260507062411 | 29 | 273 | 0.0 | 0.0 | 0.00 | 0.00 | 0.00 | 98 | 1013.8 |
| 20260507061908 | 29 | 273 | 0.0 | 0.0 | 0.00 | 0.00 | 0.00 | 98 | 1013.8 |
| 20260507061407 | 29 | 273 | 0.0 | 0.0 | 0.00 | 0.00 | 0.00 | 99 | 1013.6 |
| 20260507060905 | 29 | 273 | 0.0 | 0.0 | 0.00 | 0.00 | 0.00 | 99 | 1013.9 |
| 20260507060401 | 29 | 273 | 0.0 | 0.0 | 0.00 | 0.00 | 0.00 | 99 | 1014.0 |
| 20260507055858 | 29 | 273 | 0.0 | 0.0 | 0.00 | 0.00 | 0.00 | 99 | 1013.7 |
| 20260507055353 | 29 | 273 | 0.0 | 0.0 | 0.00 | 0.00 | 0.00 | 99 | 1013.8 |
| 20260507054850 | 29 | 273 | 0.0 | 0.0 | 0.00 | 0.00 | 0.00 | 99 | 1013.9 |
| 20260507054346 | 29 | 273 | 0.0 | 0.0 | 0.00 | 0.00 | 0.00 | 99 | 1013.9 |
| 20260507053843 | 29 | 273 | 0.0 | 0.0 | 0.00 | 0.00 | 0.00 | 99 | 1013.9 |
| 20260507053341 | 30 | 273 | 0.0 | 0.0 | 0.00 | 0.00 | 0.00 | 98 | 1014.0 |
| 20260507052839 | 30 | 273 | 0.0 | 0.0 | 0.00 | 0.00 | 0.00 | 99 | 1014.1 |
| 20260507052336 | 30 | 273 | 0.0 | 0.0 | 0.00 | 0.00 | 0.00 | 99 | 1014.1 |
| 20260507051834 | 30 | 273 | 0.0 | 0.0 | 0.00 | 0.00 | 0.00 | 99 | 1013.9 |
| 20260507051331 | 30 | 273 | 0.0 | 0.0 | 0.00 | 0.00 | 0.00 | 99 | 1014.2 |
| 20260507050828 | 30 | 273 | 0.0 | 0.0 | 0.00 | 0.00 | 0.00 | 98 | 1014.1 |
| 20260507050324 | 30 | 273 | 0.0 | 0.0 | 0.00 | 0.00 | 0.00 | 98 | 1014.1 |
| 20260507045821 | 30 | 273 | 0.0 | 0.0 | 0.00 | 0.00 | 0.00 | 97 | 1014.1 |
| 20260507045318 | 31 | 273 | 0.0 | 0.0 | 0.00 | 0.00 | 0.00 | 97 | 1014.3 |
| 20260507044815 | 31 | 273 | 0.0 | 0.0 | 0.00 | 0.00 | 0.00 | 97 | 1014.1 |
| 20260507044311 | 31 | 273 | 0.0 | 0.0 | 0.00 | 0.00 | 0.00 | 95 | 1014.4 |
| 20260507043807 | 32 | 273 | 0.0 | 0.0 | 0.00 | 0.00 | 0.00 | 93 | 1014.3 |
| 20260507043304 | 31 | 273 | 0.0 | 0.0 | 0.00 | 0.00 | 0.00 | 92 | 1014.4 |
| 20260507042800 | 31 | 273 | 0.0 | 0.0 | 0.00 | 0.00 | 0.00 | 95 | 1014.4 |
| 20260507042256 | 31 | 273 | 0.0 | 0.0 | 0.00 | 0.00 | 0.00 | 96 | 1014.3 |
| 20260507041753 | 31 | 273 | 0.0 | 0.0 | 0.00 | 0.00 | 0.00 | 96 | 1014.2 |
| 20260507041249 | 31 | 273 | 0.0 | 0.0 | 0.00 | 0.00 | 0.00 | 95 | 1014.2 |
| 20260507040747 | 31 | 273 | 0.0 | 0.0 | 0.00 | 0.00 | 0.00 | 94 | 1014.4 |
| 20260507040243 | 31 | 273 | 0.0 | 0.0 | 0.00 | 0.00 | 0.00 | 93 | 1014.2 |
| 20260507035739 | 31 | 273 | 0.0 | 0.0 | 0.00 | 0.00 | 0.00 | 92 | 1014.3 |
| 20260507035234 | 31 | 273 | 0.0 | 0.0 | 0.00 | 0.00 | 0.00 | 92 | 1014.3 |
| 20260507034732 | 31 | 273 | 0.0 | 0.9 | 0.00 | 0.00 | 0.00 | 92 | 1014.3 |
| 20260507034229 | 31 | 273 | 0.0 | 0.0 | 0.00 | 0.00 | 0.00 | 91 | 1014.5 |
| 20260507033727 | 32 | 273 | 0.0 | 0.9 | 0.00 | 0.00 | 0.00 | 90 | 1014.1 |
| 20260507033224 | 32 | 273 | 0.9 | 0.9 | 0.00 | 0.00 | 0.00 | 90 | 1014.4 |
| 20260507032722 | 31 | 273 | 0.9 | 1.7 | 0.00 | 0.00 | 0.00 | 92 | 1014.3 |
| 20260507032218 | 32 | 273 | 0.9 | 1.7 | 0.00 | 0.00 | 0.00 | 90 | 1014.5 |
| 20260507031715 | 32 | 273 | 1.7 | 1.7 | 0.00 | 0.00 | 0.00 | 90 | 1014.6 |
| 20260507031211 | 33 | 273 | 0.9 | 0.9 | 0.00 | 0.00 | 0.00 | 91 | 1014.4 |
| 20260507030708 | 34 | 273 | 0.9 | 0.9 | 0.00 | 0.00 | 0.00 | 83 | 1014.6 |
| 20260507030206 | 34 | 273 | 0.0 | 0.0 | 0.00 | 0.00 | 0.00 | 85 | 1014.4 |
| 20260507025702 | 34 | 273 | 0.0 | 0.0 | 0.00 | 0.00 | 0.00 | 87 | 1014.5 |
| 20260507025159 | 35 | 273 | 0.0 | 0.0 | 0.00 | 0.00 | 0.00 | 86 | 1014.4 |
| 20260507024658 | 35 | 273 | 0.0 | 0.0 | 0.00 | 0.00 | 0.00 | 85 | 1014.3 |
| 20260507024154 | 35 | 273 | 0.0 | 0.0 | 0.00 | 0.00 | 0.00 | 82 | 1014.4 |
| 20260507023650 | 35 | 273 | 0.0 | 0.0 | 0.00 | 0.00 | 0.00 | 82 | 1014.4 |
| 20260507023148 | 35 | 274 | 0.0 | 0.0 | 0.00 | 0.00 | 0.00 | 80 | 1014.5 |
| 20260507022644 | 35 | 274 | 0.0 | 0.0 | 0.00 | 0.00 | 0.00 | 83 | 1014.4 |
| 20260507022140 | 35 | 319 | 0.0 | 0.0 | 0.00 | 0.00 | 0.00 | 84 | 1014.2 |
| 20260507021637 | 35 | 320 | 0.0 | 0.0 | 0.00 | 0.00 | 0.00 | 85 | 1014.3 |
| 20260507021132 | 35 | 320 | 0.0 | 0.0 | 0.00 | 0.00 | 0.00 | 83 | 1014.1 |
| 20260507020631 | 35 | 320 | 0.0 | 0.0 | 0.00 | 0.00 | 0.00 | 86 | 1014.1 |
| 20260507020126 | 35 | 320 | 0.0 | 0.0 | 0.00 | 0.00 | 0.00 | 81 | 1014.4 |
| 20260507015625 | 35 | 320 | 0.0 | 0.0 | 0.00 | 0.00 | 0.00 | 86 | 1014.2 |
| 20260507015122 | 35 | 320 | 0.0 | 0.0 | 0.00 | 0.00 | 0.00 | 82 | 1014.2 |